Weather History for Cape Girardeau, MO

Change the Weather History Date:

Wednesday, April 24, 2013

  Actual Average Record
Temperature  
Mean Temperature 47 °F 60 °F  
Max Temperature 55 °F 72 °F 85 °F (1965)
Min Temperature 38 °F 49 °F 32 °F (1963)
Degree Days  
Heating Degree Days 18 6  
Month to date heating degree days 249 232  
Since 1 July heating degree days 4210 4288  
Cooling Degree Days 0 1  
Month to date cooling degree days 24 18  
Year to date cooling degree days 24 22  
Moisture  
Dew Point 37 °F    
Average Humidity 65    
Maximum Humidity 89    
Minimum Humidity 41    
Precipitation  
Precipitation 0.09 in 0.16 in 3.60 in (2011)
Month to date precipitation 3.06 3.38  
Year to date precipitation 12.23 14.66  
Sea Level Pressure  
Sea Level Pressure 30.12 in    
Wind  
Wind Speed 9 mph (NNW)    
Max Wind Speed 22 mph    
Max Gust Speed 26 mph    
Visibility 10 miles    
Events Rain    
T = Trace of Precipitation, MM = Missing Value Source: NWS Daily Summary

Daily Weather History Graph

Daily Weather History Graph

Search for Another Location

Airport:

Trip Planner

Search our weather history database for the weather conditions in past years. The results will help you decide how hot, cold, wet, or windy it might be!

Date:

Astronomy

Apr. 24, 2013 Rise Set
Actual Time 6:11 AM CDT 7:41 PM CDT
Civil Twilight 5:44 AM CDT 8:09 PM CDT
Nautical Twilight 5:11 AM CDT 8:42 PM CDT
Astronomical Twilight 4:36 AM CDT 9:17 PM CDT
Moon 6:45 PM CDT (4/24) 5:13 AM CDT (4/24)
Length of Visible Light 14h 25m
Length of Day
13h 30m
Waxing Gibbous, 98% of the Moon is Illuminated
Apr 24
Waxing Gibbous
Apr 25
Full
May 2
Last Quarter
May 9
New
May 17
First Quarter

Hourly Weather History & Observations

Time (CDT) Temp. Windchill Dew Point Humidity Pressure Visibility Wind Dir Wind Speed Gust Speed Precip Events Conditions
12:14 AM 44.6 °F 36.9 °F 41.0 °F 87% 29.97 in 10.0 mi NNW 18.4 mph 21.9 mph N/A   Overcast
12:38 AM 44.6 °F 38.4 °F 41.0 °F 87% 29.97 in 10.0 mi NNW 12.7 mph - N/A   Overcast
12:53 AM 45.0 °F 39.3 °F 41.0 °F 86% 29.97 in 10.0 mi NNW 11.5 mph - N/A   Overcast
1:53 AM 45.0 °F 38.9 °F 39.9 °F 82% 29.97 in 10.0 mi NNW 12.7 mph - N/A   Overcast
2:53 AM 43.0 °F 36.8 °F 39.0 °F 86% 29.96 in 10.0 mi North 11.5 mph - N/A   Overcast
3:16 AM 42.8 °F 35.8 °F 39.2 °F 87% 29.98 in 10.0 mi NNW 13.8 mph - N/A   Overcast
3:53 AM 43.0 °F 35.7 °F 39.0 °F 86% 30.00 in 10.0 mi NNW 15.0 mph 19.6 mph N/A   Overcast
4:08 AM 42.8 °F 35.8 °F 39.2 °F 87% 30.00 in 9.0 mi NNW 13.8 mph 21.9 mph 0.00 in Rain Light Rain
4:39 AM 42.8 °F 36.2 °F 39.2 °F 87% 29.98 in 9.0 mi NNW 12.7 mph - 0.00 in Rain Light Rain
4:53 AM 42.8 °F 36.2 °F 37.4 °F 81% 30.00 in 10.0 mi NNW 12.7 mph 19.6 mph N/A   Overcast
5:03 AM 42.8 °F 35.8 °F 39.2 °F 87% 30.00 in 10.0 mi NNW 13.8 mph - N/A   Overcast
5:53 AM 41.0 °F 35.2 °F 37.9 °F 89% 30.00 in 10.0 mi NNW 9.2 mph 20.7 mph 0.00 in Rain Light Rain
6:24 AM 41.0 °F 34.7 °F 37.4 °F 87% 30.03 in 5.0 mi NNW 10.4 mph - 0.08 in Rain Rain
6:33 AM 41.0 °F 34.7 °F 37.4 °F 87% 29.99 in 6.0 mi North 10.4 mph - 0.09 in Rain Rain
6:53 AM 41.0 °F 34.7 °F 37.9 °F 89% 30.04 in 10.0 mi NNW 10.4 mph - 0.09 in   Overcast
7:22 AM 42.8 °F 36.2 °F 37.4 °F 81% 30.08 in 10.0 mi NW 12.7 mph - N/A   Overcast
7:41 AM 42.8 °F 36.6 °F 37.4 °F 81% 30.11 in 9.0 mi NW 11.5 mph - N/A   Overcast
7:53 AM 42.1 °F 36.1 °F 37.9 °F 85% 30.12 in 9.0 mi NW 10.4 mph 20.7 mph N/A   Overcast
8:53 AM 42.1 °F 34.2 °F 37.0 °F 82% 30.12 in 8.0 mi NW 16.1 mph 25.3 mph N/A   Overcast
9:53 AM 44.1 °F 36.8 °F 36.0 °F 73% 30.13 in 10.0 mi NNW 16.1 mph 23.0 mph N/A   Overcast
10:53 AM 44.1 °F 36.8 °F 36.0 °F 73% 30.19 in 10.0 mi NNW 16.1 mph 21.9 mph N/A   Overcast
11:16 AM 44.6 °F 37.8 °F 35.6 °F 71% 30.20 in 10.0 mi NNW 15.0 mph - N/A   Overcast
11:24 AM 44.6 °F 37.8 °F 35.6 °F 71% 30.20 in 10.0 mi NNW 15.0 mph - N/A   Overcast
11:53 AM 45.0 °F 39.7 °F 35.1 °F 68% 30.21 in 10.0 mi NW 10.4 mph - N/A   Overcast
12:27 PM 46.4 °F 41.9 °F 33.8 °F 62% 30.21 in 10.0 mi North 9.2 mph - N/A   Mostly Cloudy
12:53 PM 46.0 °F 41.4 °F 35.1 °F 66% 30.22 in 10.0 mi North 9.2 mph - N/A   Overcast
1:53 PM 48.9 °F - 35.1 °F 59% 30.22 in 10.0 mi NNW 11.5 mph - N/A   Mostly Cloudy
2:53 PM 50.0 °F - 34.0 °F 54% 30.22 in 10.0 mi NW 6.9 mph 19.6 mph N/A   Scattered Clouds
3:53 PM 53.1 °F - 34.0 °F 48% 30.22 in 10.0 mi NNW 9.2 mph - N/A   Clear
4:53 PM 53.1 °F - 33.1 °F 47% 30.22 in 10.0 mi WNW 4.6 mph - N/A   Clear
5:53 PM 54.0 °F - 30.9 °F 41% 30.22 in 10.0 mi Calm Calm - N/A   Clear
6:53 PM 52.0 °F - 33.1 °F 49% 30.22 in 10.0 mi Calm Calm - N/A   Clear
7:53 PM 46.9 °F - 39.9 °F 77% 30.24 in 10.0 mi SSE 3.5 mph - N/A   Clear
8:53 PM 44.1 °F 42.5 °F 37.0 °F 76% 30.27 in 10.0 mi SSE 3.5 mph - N/A   Clear
9:53 PM 43.0 °F 39.5 °F 36.0 °F 76% 30.28 in 10.0 mi South 5.8 mph - N/A   Clear
10:53 PM 43.0 °F 40.3 °F 37.0 °F 80% 30.29 in 10.0 mi South 4.6 mph - N/A   Clear
11:53 PM 42.1 °F 40.2 °F 36.0 °F 79% 30.29 in 10.0 mi South 3.5 mph - N/A   Clear